Location: Camaret
(48.2753°N, 4.5961°W)
Time: 01:02:08
(UTC+00:00)

Timation 1 Rocket - Pass Details

Date: 29 October 2020
Orbit: 896 x 911 km, 70.0° (Epoch: 26 November)

Event Time Altitude Azimuth Distance (km) Brightness Sun altitude
Rises 19:17:22 0° 329° (NNW) 3,550 7.9 -22.7°
Reaches altitude 10° 19:19:52 10° 327° (NNW) 2,605 7.2 -23.2°
Maximum altitude 19:25:53 73° 245° (WSW) 952 4.5 -24.2°
Enters shadow 19:29:29 25° 165° (SSE) 1,743 5.6 -24.7°
